GW0353 Weather Reports


time (UTC)temp
C
wind
direction
speed
KPH
gust
KPH
rain 1hr
cm
rain 24hr
cm
rain mn
cm
humidity
%
barometer
mb
20260506185059 18 165 3.2 11.3 0.00 0.00 0.00 33 1025.6
20260506184604 18 295 3.2 11.3 0.00 0.00 0.00 33 1025.6
20260506184059 18 287 4.8 11.3 0.00 0.00 0.00 32 1025.5
20260506183559 17 44 0.0 9.7 0.00 0.00 0.00 35 1025.7
20260506183104 17 48 4.8 9.7 0.00 0.00 0.00 34 1025.7
20260506182558 18 45 0.0 6.4 0.00 0.00 0.00 35 1025.6
20260506182058 18 10 1.6 6.4 0.00 0.00 0.00 35 1025.7
20260506181607 18 288 1.6 9.7 0.00 0.00 0.00 34 1025.5
20260506181059 18 282 1.6 9.7 0.00 0.00 0.00 34 1025.6
20260506180559 18 255 1.6 9.7 0.00 0.00 0.00 36 1025.6
20260506180059 18 322 0.0 6.4 0.00 0.00 0.00 33 1025.6
20260506175558 18 27 1.6 6.4 0.00 0.00 0.00 35 1025.6
20260506175058 18 292 1.6 6.4 0.00 0.00 0.00 35 1025.6
20260506174557 18 313 1.6 8.0 0.00 0.00 0.00 35 1025.5
20260506174058 17 0 3.2 8.0 0.00 0.00 0.00 37 1025.5
20260506173558 16 72 3.2 9.7 0.00 0.00 0.00 39 1025.5
20260506173126 16 218 4.8 9.7 0.00 0.00 0.00 38 1025.3
20260506172558 16 288 1.6 8.0 0.00 0.00 0.00 38 1025.3
20260506172058 16 298 4.8 8.0 0.00 0.00 0.00 39 1025.3
20260506171604 16 54 4.8 8.0 0.00 0.00 0.00 39 1025.1
20260506171059 17 275 1.6 4.8 0.00 0.00 0.00 39 1025.3
20260506170559 16 66 1.6 6.4 0.00 0.00 0.00 39 1025.3
20260506170109 16 27 1.6 6.4 0.00 0.00 0.00 43 1025.3
20260506165559 16 50 1.6 4.8 0.00 0.03 0.00 48 1025.3
20260506165059 15 0 1.6 4.8 0.00 0.03 0.00 46 1025.3
20260506164559 14 0 0.0 4.8 0.00 0.03 0.00 53 1025.2
20260506164058 13 0 1.6 4.8 0.00 0.03 0.00 54 1025.2
20260506163558 13 308 0.0 3.2 0.00 0.03 0.00 54 1025.1
20260506163100 13 70 0.0 6.4 0.00 0.03 0.00 57 1025.3
20260506162558 12 0 1.6 6.4 0.00 0.03 0.00 59 1025.2
20260506162058 12 49 1.6 6.4 0.00 0.03 0.00 60 1025.3
20260506161559 11 23 1.6 8.0 0.00 0.03 0.00 63 1025.2
20260506161058 11 57 4.8 8.0 0.00 0.03 0.00 62 1025.0
20260506160558 11 9 1.6 4.8 0.00 0.03 0.00 62 1025.0
20260506160059 11 305 0.0 4.8 0.00 0.03 0.00 65 1025.1
20260506155602 10 53 1.6 6.4 0.00 0.13 0.00 64 1025.1
20260506155102 10 0 1.6 6.4 0.00 0.13 0.00 64 1025.1
20260506154613 10 34 3.2 6.4 0.00 0.13 0.00 66 1025.1
20260506154058 10 0 0.0 4.8 0.00 0.13 0.00 68 1025.1
20260506153558 9 45 1.6 4.8 0.00 0.13 0.00 70 1024.9
20260506153059 8 48 1.6 4.8 0.00 0.13 0.00 72 1024.9
20260506152559 8 56 0.0 4.8 0.00 0.13 0.00 74 1025.0
20260506152101 8 88 0.0 4.8 0.00 0.13 0.00 76 1025.0
20260506151558 7 94 1.6 4.8 0.00 0.13 0.00 75 1025.1
20260506151058 7 0 1.6 3.2 0.00 0.13 0.00 79 1025.1
20260506150600 7 46 0.0 3.2 0.00 0.13 0.00 80 1025.1
20260506150057 6 62 1.6 3.2 0.00 0.13 0.00 80 1025.2
20260506145559 6 77 1.6 3.2 0.00 0.25 0.00 79 1024.9
20260506145058 6 70 0.0 3.2 0.00 0.25 0.00 82 1025.1
20260506144607 6 65 1.6 3.2 0.00 0.25 0.00 82 1024.9
20260506144101 6 55 1.6 3.2 0.00 0.25 0.00 83 1024.8
20260506143602 5 0 0.0 1.6 0.00 0.25 0.00 83 1024.8
20260506143058 5 0 0.0 1.6 0.00 0.25 0.00 82 1024.6
20260506142558 5 0 0.0 1.6 0.00 0.25 0.00 84 1024.7
20260506142058 5 0 0.0 1.6 0.00 0.25 0.00 83 1024.7
20260506141602 5 0 0.0 0.0 0.00 0.25 0.00 85 1024.6
20260506141100 4 0 0.0 0.0 0.00 0.25 0.00 86 1024.5
20260506140602 3 0 0.0 0.0 0.00 0.25 0.00 87 1024.4
20260506140058 3 0 0.0 1.6 0.00 0.25 0.00 90 1024.4
20260506135559 2 0 0.0 3.2 0.00 0.28 0.00 92 1024.3
20260506135058 1 0 0.0 3.2 0.00 0.28 0.00 92 1024.2
20260506134556 0 169 0.0 1.6 0.00 0.28 0.00 92 1024.2
20260506134102 0 0 0.0 0.0 0.00 0.28 0.00 92 1024.0
20260506133559 0 0 0.0 0.0 0.00 0.28 0.00 92 1024.0
20260506133126 0 0 0.0 0.0 0.00 0.28 0.00 92 1023.8
20260506132558 0 0 0.0 3.2 0.00 0.28 0.00 92 1023.9
20260506132058 0 0 0.0 3.2 0.00 0.28 0.00 92 1023.8
20260506131558 0 219 0.0 3.2 0.00 0.28 0.00 92 1023.8
20260506131058 0 0 0.0 1.6 0.00 0.28 0.00 92 1023.8
20260506130559 0 0 0.0 1.6 0.00 0.28 0.00 91 1023.7
20260506130122 0 0 0.0 0.0 0.00 0.28 0.00 92 1023.5
20260506125559 0 0 0.0 0.0 0.00 0.28 0.00 91 1023.6
20260506125058 0 0 0.0 1.6 0.00 0.28 0.00 91 1023.4
20260506124559 0 0 0.0 1.6 0.00 0.28 0.00 91 1023.2
20260506124058 0 0 0.0 1.6 0.00 0.28 0.00 91 1023.3
20260506123558 0 0 0.0 1.6 0.00 0.28 0.00 90 1023.1
20260506123057 1 0 0.0 1.6 0.00 0.28 0.00 91 1023.1
20260506122602 1 0 0.0 1.6 0.00 0.28 0.00 91 1023.0
20260506122058 1 0 0.0 1.6 0.00 0.28 0.00 91 1023.1
20260506121559 0 0 0.0 1.6 0.00 0.28 0.00 90 1022.9
20260506121059 1 184 0.0 1.6 0.00 0.28 0.00 89 1022.9
20260506120601 1 0 0.0 0.0 0.00 0.28 0.00 90 1022.9
20260506120058 1 0 0.0 3.2 0.00 0.28 0.00 90 1022.7
20260506115602 1 0 0.0 3.2 0.00 0.28 0.00 90 1022.7
20260506115058 1 188 1.6 3.2 0.00 0.28 0.00 89 1022.6
20260506114605 1 0 0.0 1.6 0.00 0.28 0.00 89 1022.8
20260506114058 1 184 0.0 1.6 0.00 0.28 0.00 88 1022.7
20260506113558 1 0 0.0 1.6 0.00 0.28 0.00 88 1022.6
20260506113058 1 0 0.0 1.6 0.00 0.28 0.00 89 1022.6
20260506112600 1 0 0.0 1.6 0.00 0.28 0.00 88 1022.6
20260506112102 1 0 0.0 6.4 0.00 0.28 0.00 87 1022.6
20260506111556 1 0 1.6 6.4 0.00 0.28 0.00 88 1022.5
20260506111058 1 0 0.0 3.2 0.00 0.28 0.00 89 1022.6
20260506110559 1 188 0.0 3.2 0.00 0.28 0.00 87 1022.6
20260506110100 1 0 0.0 3.2 0.00 0.28 0.00 87 1022.6
20260506105559 2 0 0.0 3.2 0.00 0.28 0.00 87 1022.6
20260506105059 2 197 0.0 1.6 0.00 0.28 0.00 87 1022.4
20260506104635 2 0 0.0 1.6 0.00 0.28 0.00 87 1022.5
20260506104058 2 0 0.0 1.6 0.00 0.28 0.00 87 1022.4
20260506103559 2 171 0.0 3.2 0.00 0.28 0.00 87 1022.5
20260506103103 2 161 1.6 3.2 0.00 0.28 0.00 85 1022.4
20260506102559 2 0 0.0 1.6 0.00 0.28 0.00 86 1022.4
20260506102102 2 0 0.0 3.2 0.00 0.28 0.00 84 1022.4
20260506101557 2 0 1.6 3.2 0.00 0.28 0.00 84 1022.2
20260506101058 2 0 0.0 1.6 0.00 0.28 0.00 84 1022.2
20260506100558 2 0 0.0 0.0 0.00 0.28 0.00 83 1022.2
20260506100058 3 0 0.0 0.0 0.00 0.28 0.00 83 1022.3
20260506095601 3 0 0.0 1.6 0.00 0.30 0.00 83 1022.2
20260506095137 3 0 0.0 4.8 0.00 0.30 0.00 83 1022.2
20260506094556 3 0 0.0 4.8 0.00 0.30 0.00 83 1022.2
20260506094058 3 169 0.0 3.2 0.00 0.30 0.00 82 1022.2
20260506093558 3 0 0.0 1.6 0.00 0.30 0.00 82 1022.1
20260506093059 3 0 0.0 3.2 0.00 0.30 0.00 81 1022.1
20260506092600 3 226 0.0 3.2 0.00 0.30 0.00 82 1022.1
20260506092058 3 207 0.0 0.0 0.00 0.30 0.00 82 1022.1
20260506091556 3 0 0.0 0.0 0.00 0.30 0.00 82 1022.0
20260506091059 3 0 0.0 1.6 0.00 0.30 0.00 80 1022.0
20260506090558 4 0 0.0 1.6 0.00 0.30 0.00 80 1021.8
20260506090059 4 0 0.0 1.6 0.00 0.30 0.00 80 1021.8
20260506085558 4 0 0.0 3.2 0.00 0.30 0.00 80 1021.9
20260506085058 4 0 0.0 3.2 0.00 0.30 0.00 80 1021.8
20260506084559 4 161 0.0 4.8 0.00 0.30 0.00 82 1021.7
20260506084058 4 0 0.0 4.8 0.00 0.30 0.00 81 1021.7
20260506083559 4 151 0.0 4.8 0.00 0.30 0.00 82 1021.8
20260506083059 4 0 0.0 0.0 0.00 0.30 0.00 82 1021.9
20260506082558 4 0 0.0 0.0 0.00 0.30 0.00 81 1021.7
20260506082058 5 0 0.0 1.6 0.00 0.30 0.00 81 1021.7
20260506081600 5 0 0.0 3.2 0.00 0.30 0.00 81 1021.7
20260506081058 5 0 0.0 4.8 0.00 0.30 0.00 81 1021.8
20260506080558 5 0 0.0 4.8 0.00 0.30 0.00 82 1022.0
20260506080111 5 171 0.0 1.6 0.00 0.30 0.00 82 1022.2
20260506073100 5 0 0.0 0.0 0.00 0.30 0.00 80 1021.5
20260506072603 5 0 0.0 0.0 0.00 0.30 0.00 79 1021.3
20260506072059 5 0 0.0 1.6 0.00 0.30 0.00 79 1021.5
20260506071621 5 0 0.0 1.6 0.00 0.30 0.00 78 1021.5
20260506071058 5 0 0.0 1.6 0.00 0.30 0.00 77 1021.5
20260506070558 5 186 0.0 0.0 0.00 0.30 0.00 78 1021.5
20260506062058 5 0 0.0 0.0 0.00 0.30 0.30 73 1020.9
20260506061600 6 0 0.0 1.6 0.00 0.30 0.30 70 1020.8
20260506061059 6 0 0.0 1.6 0.00 0.30 0.30 68 1020.9
20260506060602 6 0 0.0 1.6 0.00 0.30 0.30 66 1020.9
20260506051058 7 243 0.0 6.4 0.00 0.30 0.30 63 1020.2
20260506050557 7 233 0.0 6.4 0.00 0.30 0.30 64 1020.2
20260506045056 7 198 0.0 3.2 0.00 0.30 0.30 66 1020.2
20260506044612 7 0 0.0 3.2 0.00 0.30 0.30 66 1020.2
20260506044056 7 0 0.0 6.4 0.00 0.30 0.30 66 1020.2
20260506043556 7 0 0.0 6.4 0.00 0.30 0.30 65 1020.0
20260506043059 7 222 0.0 1.6 0.00 0.30 0.30 65 1020.1
20260506042557 7 0 0.0 1.6 0.00 0.30 0.30 66 1019.9
20260506042056 7 0 0.0 3.2 0.00 0.30 0.30 65 1019.8
20260506041558 7 0 0.0 3.2 0.00 0.30 0.30 65 1019.7
20260506041056 7 0 0.0 3.2 0.00 0.30 0.30 65 1019.6
20260506040559 7 0 0.0 0.0 0.00 0.30 0.30 65 1019.6
20260506040059 7 0 0.0 3.2 0.00 0.30 0.30 65 1019.5
20260506035558 7 0 0.0 4.8 0.00 0.30 0.30 64 1019.6
20260506035057 7 150 0.0 4.8 0.00 0.30 0.30 65 1019.3
20260506034601 7 0 0.0 1.6 0.00 0.30 0.30 65 1019.3
20260506034057 7 0 0.0 1.6 0.00 0.30 0.30 64 1019.2
20260506033556 7 0 0.0 3.2 0.00 0.30 0.30 64 1019.0
20260506033059 7 236 0.0 3.2 0.00 0.30 0.30 64 1018.9
20260506032557 7 188 0.0 1.6 0.00 0.30 0.30 64 1018.8
20260506032057 7 0 0.0 1.6 0.00 0.30 0.30 64 1018.8
20260506031559 7 0 0.0 1.6 0.00 0.30 0.30 65 1018.6
20260506031100 7 213 0.0 3.2 0.00 0.30 0.30 64 1018.6
20260506030556 7 252 0.0 3.2 0.00 0.30 0.30 64 1018.6
20260506030056 7 0 0.0 4.8 0.00 0.30 0.30 63 1018.5
20260506025556 7 239 0.0 4.8 0.00 0.30 0.30 62 1018.4
20260506025056 8 0 0.0 3.2 0.00 0.30 0.30 62 1018.4
20260506024558 8 0 0.0 1.6 0.00 0.30 0.30 61 1018.3
20260506024058 8 0 0.0 1.6 0.00 0.30 0.30 60 1018.2
20260506023558 8 0 0.0 1.6 0.00 0.30 0.30 59 1018.1
20260506023102 9 0 0.0 1.6 0.00 0.30 0.30 58 1018.2
20260506022557 9 0 0.0 1.6 0.00 0.30 0.30 58 1018.0
20260506022057 10 0 0.0 1.6 0.00 0.30 0.30 57 1017.9
20260506021605 10 0 0.0 1.6 0.00 0.30 0.30 57 1017.9
20260506021057 10 0 0.0 3.2 0.00 0.30 0.30 58 1017.7
20260506020559 10 258 0.0 3.2 0.00 0.30 0.30 57 1017.7
20260506015557 10 194 0.0 3.2 0.00 0.38 0.30 56 1017.6
20260506015057 10 150 0.0 1.6 0.00 0.38 0.30 56 1017.6
20260506014600 11 0 0.0 3.2 0.00 0.38 0.30 55 1017.5
20260506014056 11 250 0.0 3.2 0.00 0.38 0.30 54 1017.5
20260506013556 11 0 0.0 3.2 0.00 0.38 0.30 54 1017.4
20260506013107 11 298 0.0 3.2 0.00 0.38 0.30 53 1017.4
20260506012556 11 0 0.0 3.2 0.00 0.38 0.30 53 1017.3
20260506012100 11 317 0.0 8.0 0.00 0.38 0.30 52 1017.3
20260506011601 11 0 0.0 8.0 0.00 0.38 0.30 51 1017.3
20260506011057 12 304 1.6 4.8 0.00 0.38 0.30 47 1017.3
20260506010557 13 5 1.6 8.0 0.00 0.38 0.30 47 1017.3
20260506010058 12 0 1.6 8.0 0.00 0.38 0.30 45 1017.0
20260506005556 13 0 1.6 9.7 0.00 0.38 0.30 47 1017.0
20260506005057 13 310 1.6 9.7 0.00 0.38 0.30 47 1016.9
20260506004604 12 0 0.0 6.4 0.00 0.38 0.30 49 1016.8
20260506004057 12 299 1.6 6.4 0.00 0.38 0.30 49 1016.8
20260506003601 12 317 1.6 6.4 0.00 0.38 0.30 49 1016.8
20260506003118 12 0 1.6 6.4 0.00 0.38 0.30 49 1016.8
20260506002558 12 0 1.6 4.8 0.00 0.38 0.30 53 1016.8
20260506002056 11 0 1.6 8.0 0.00 0.38 0.30 55 1016.8
20260506001611 11 285 0.0 8.0 0.00 0.38 0.30 55 1016.8
20260506001057 11 302 1.6 6.4 0.00 0.38 0.30 57 1016.6
20260506000557 11 295 1.6 6.4 0.00 0.38 0.30 57 1016.7
20260506000112 11 220 1.6 6.4 0.00 0.38 0.30 57 1016.8
20260505235557 11 198 0.0 11.3 0.00 0.38 0.30 56 1016.7
20260505235057 11 0 3.2 11.3 0.00 0.38 0.30 55 1016.8
20260505234613 11 215 1.6 9.7 0.00 0.38 0.30 55 1016.7
20260505234059 12 315 1.6 8.0 0.00 0.38 0.30 56 1016.7
20260505233557 12 0 1.6 6.4 0.00 0.38 0.30 57 1016.5
20260505233100 11 138 1.6 12.9 0.00 0.38 0.30 57 1016.5
20260505232557 11 0 3.2 12.9 0.00 0.38 0.30 55 1016.6
20260505232059 12 316 1.6 12.9 0.00 0.38 0.30 57 1016.5
20260505231600 11 184 3.2 9.7 0.00 0.38 0.30 58 1016.5
20260505231057 11 0 1.6 14.5 0.00 0.38 0.30 55 1016.5
20260505230559 11 145 3.2 14.5 0.00 0.38 0.30 57 1016.6
20260505230058 11 315 3.2 9.7 0.00 0.38 0.30 57 1016.5
20260505225559 11 229 0.0 9.7 0.00 0.38 0.30 49 1016.5
20260505225058 11 280 3.2 9.7 0.00 0.38 0.30 48 1016.3
20260505224557 11 332 4.8 9.7 0.00 0.38 0.30 47 1016.3
20260505224056 12 315 1.6 6.4 0.00 0.38 0.30 47 1016.1
20260505223556 12 312 1.6 8.0 0.00 0.38 0.30 47 1016.2
20260505223108 12 59 3.2 8.0 0.00 0.38 0.30 48 1016.4
20260505222556 12 142 1.6 8.0 0.00 0.38 0.30 49 1016.4
20260505222056 12 354 1.6 8.0 0.00 0.38 0.30 48 1016.3
20260505221557 12 0 3.2 11.3 0.00 0.38 0.30 47 1016.4
20260505221058 12 49 4.8 11.3 0.00 0.38 0.30 49 1016.4
20260505220557 12 293 3.2 8.0 0.00 0.38 0.30 47 1016.5
20260505220100 12 60 1.6 8.0 0.00 0.38 0.30 50 1016.5
20260505215602 11 353 3.2 11.3 0.00 0.38 0.30 51 1016.5
20260505215057 11 47 3.2 11.3 0.00 0.38 0.30 53 1016.6
20260505214604 11 113 0.0 9.7 0.00 0.38 0.30 54 1016.6
20260505214057 11 57 4.8 9.7 0.00 0.38 0.30 53 1016.6
20260505213559 10 331 3.2 8.0 0.00 0.38 0.30 56 1016.7
20260505213057 10 95 3.2 8.0 0.00 0.38 0.30 55 1016.7
20260505212556 10 45 3.2 8.0 0.00 0.38 0.30 56 1016.7
20260505212058 10 74 0.0 6.4 0.00 0.38 0.30 55 1016.7
20260505211634 11 0 1.6 6.4 0.00 0.38 0.30 52 1016.6
20260505211057 11 0 1.6 6.4 0.00 0.38 0.30 57 1016.6
20260505210556 11 0 1.6 6.4 0.00 0.38 0.30 58 1016.6
20260505210058 10 66 1.6 6.4 0.00 0.38 0.30 58 1016.5
20260505205557 10 140 1.6 8.0 0.00 0.38 0.30 58 1016.6
20260505205058 11 0 3.2 8.0 0.00 0.38 0.30 56 1016.8
20260505204559 11 0 0.0 4.8 0.00 0.38 0.30 62 1016.6
20260505204100 10 56 1.6 4.8 0.00 0.38 0.30 59 1016.6
20260505203557 11 259 0.0 4.8 0.00 0.38 0.30 60 1016.7
20260505203126 10 138 0.0 4.8 0.00 0.38 0.30 64 1016.8
20260505202557 10 255 0.0 8.0 0.00 0.38 0.30 65 1016.8
20260505202057 8 240 3.2 8.0 0.00 0.38 0.30 65 1016.8
20260505201556 8 102 3.2 8.0 0.00 0.38 0.30 69 1016.8
20260505201057 8 155 3.2 6.4 0.00 0.38 0.30 66 1016.7
20260505200558 8 248 1.6 6.4 0.00 0.38 0.30 69 1017.0
20260505200058 8 250 0.0 4.8 0.00 0.38 0.30 67 1017.1
20260505195558 8 229 0.0 4.8 0.00 0.38 0.30 64 1017.1
20260505195058 8 174 1.6 8.0 0.00 0.38 0.30 64 1017.1
20260505194558 7 0 3.2 8.0 0.00 0.38 0.30 67 1017.2
20260505194058 7 52 1.6 8.0 0.00 0.38 0.30 70 1017.2
20260505193557 7 42 0.0 9.7 0.00 0.38 0.30 69 1017.2
20260505193054 8 321 3.2 9.7 0.00 0.38 0.30 68 1017.2
20260505192559 8 72 1.6 8.0 0.00 0.38 0.30 64 1017.2
20260505192057 8 0 1.6 8.0 0.00 0.38 0.30 71 1017.0
20260505191558 8 46 0.0 8.0 0.00 0.38 0.30 71 1016.8
20260505191058 8 51 0.0 4.8 0.00 0.38 0.30 70 1016.8
20260505190558 8 0 0.0 4.8 0.00 0.38 0.30 74 1016.8
20260505190059 7 0 1.6 4.8 0.00 0.38 0.30 74 1016.8
20260505185558 7 15 0.0 4.8 0.00 0.38 0.30 83 1016.7